Seattle-Tacoma

Airport
ICAO code: 
KSEA
Summary
ICAO Region: 
NAM
Territory: 
Location: 
SeaTac, Washington,
Coordinates: 
Aerial View: 
47° 26' 55.224" N, 122° 18' 35.552" W
Airport BS: 
Bird Strike
Airport LOS: 
Parallel Runway Operation
Metar
Observation
KSEA 240453Z 04004KT 1/4SM R16L/2000V3500FT FG VV001 02/02 A3032 RMK AO2 SLP277 T00220022
Station
Seattle, Seattle-Tacoma International Airport
Date/Time
2022-01-24 04:53:00
Wind direction
40°
Wind speed
04 kts
Lowest cloud amount
n/a
Temperature
2.2°C
Dew point
2.2°C
Humidity
100%
Weather condition
fog

Description

Seattle-Tacoma International Airport, also known as "Sea-Tac Airport" or Sea-Tac, is located in SeaTac, Washington, United States at the intersections of State Route 518, State Route 99 and State Route 509, about 1.5 miles west of Interstate 5. It serves Seattle and Tacoma, Washington as well as the rest of western Washington. The airport is the primary hub for Alaska Airlines, whose headquarters is located near the airport.

Climatology

Dry-summer subtropical ”Mediterranean" climate (Köppen climate classification Csb) - characterized by warm, dry summers and mild winters.

Runways

Designator Length Width Surface Rops
16C/34C 2873 46 CONC-F Yes/Yes
16R/34L 2873 46 CON Yes/Yes
16L/34R 3627 46 ASP Yes/Yes
Airport map: 
Aerial View: 

Accidents and Serious Incidents at or in the vicinity of KSEA

SKYbrary Partners:

Safety knowledge contributed by: